CW9236 Weather Reports


time (UTC)temp
F
wind
direction
speed
knots
gust
knots
rain 1hr
in
rain 24hr
in
rain mn
in
humidity
%
barometer
mb
20260506130010 75 267 0.9 2.6 0.00 0.00 0.00 93 1010.2
20260506125506 75 84 0.0 2.6 0.00 0.00 0.00 93 1010.2
20260506125008 75 86 0.9 2.6 0.00 0.00 0.00 93 1010.2
20260506124519 75 92 0.0 2.6 0.00 0.00 0.00 94 1010.1
20260506124009 75 93 0.0 1.7 0.00 0.00 0.00 94 1010.0
20260506123509 75 284 0.0 1.7 0.00 0.00 0.00 94 1010.0
20260506123035 75 88 0.0 1.7 0.00 0.00 0.00 94 1010.0
20260506122511 74 106 0.0 0.9 0.00 0.00 0.00 93 1010.0
20260506122009 74 134 0.0 0.9 0.00 0.00 0.00 93 1010.0
20260506121527 74 134 0.0 0.9 0.00 0.00 0.00 93 1009.9
20260506121004 74 138 0.0 0.9 0.00 0.00 0.00 93 1009.8
20260506120507 74 165 0.0 0.9 0.00 0.00 0.00 93 1009.9
20260506120023 74 196 0.0 0.9 0.00 0.00 0.00 93 1009.9
20260506115514 74 94 0.0 0.9 0.00 0.00 0.00 93 1009.7
20260506115012 74 63 0.0 0.9 0.00 0.00 0.00 93 1009.6
20260506114521 74 63 0.0 0.0 0.00 0.00 0.00 93 1009.6
20260506114012 74 63 0.0 0.9 0.00 0.00 0.00 93 1009.6
20260506113511 74 63 0.0 0.9 0.00 0.00 0.00 93 1009.6
20260506113028 74 63 0.0 0.9 0.00 0.00 0.00 93 1009.5
20260506112508 74 63 0.0 0.9 0.00 0.00 0.00 93 1009.4
20260506112010 74 63 0.0 1.7 0.00 0.00 0.00 93 1009.5
20260506111506 74 63 0.0 3.5 0.00 0.00 0.00 93 1009.4
20260506111008 74 74 0.0 3.5 0.00 0.00 0.00 93 1009.2
20260506110509 74 294 0.0 1.7 0.00 0.00 0.00 93 1009.0
20260506110007 74 76 0.0 1.7 0.00 0.00 0.00 93 1008.9
20260506105502 74 84 0.9 1.7 0.00 0.00 0.00 93 1009.0
20260506105004 74 70 0.0 1.7 0.00 0.00 0.00 93 1009.0
20260506104504 74 83 0.9 2.6 0.00 0.00 0.00 93 1008.8
20260506104003 74 43 0.0 3.5 0.00 0.00 0.00 92 1008.8
20260506103504 74 54 0.9 3.5 0.00 0.00 0.00 92 1008.8
20260506103008 74 80 0.9 2.6 0.00 0.00 0.00 92 1008.8
20260506102506 74 71 0.9 2.6 0.00 0.00 0.00 92 1008.8
20260506102005 74 82 0.0 2.6 0.00 0.00 0.00 92 1008.8
20260506101508 75 75 0.9 2.6 0.00 0.00 0.00 91 1008.9
20260506101004 75 78 0.0 2.6 0.00 0.00 0.00 90 1008.9
20260506100505 75 73 0.0 3.5 0.00 0.00 0.00 90 1009.0
20260506100017 75 92 0.9 3.5 0.00 0.00 0.00 90 1009.0
20260506095503 75 90 0.0 3.5 0.00 0.00 0.00 89 1008.8
20260506095003 76 71 0.0 2.6 0.00 0.00 0.00 89 1008.8
20260506094508 76 100 0.9 3.5 0.00 0.00 0.00 89 1008.7
20260506094004 76 86 0.9 3.5 0.00 0.00 0.00 89 1008.6
20260506093507 76 49 0.9 4.3 0.00 0.00 0.00 89 1008.5
20260506093010 76 64 1.7 4.3 0.00 0.00 0.00 89 1008.5
20260506092504 76 63 0.9 4.3 0.00 0.00 0.00 89 1008.4
20260506092004 76 91 1.7 3.5 0.00 0.00 0.00 89 1008.4
20260506091512 76 60 0.9 3.5 0.00 0.00 0.00 89 1008.5
20260506091010 76 53 0.9 5.2 0.00 0.00 0.00 89 1008.5
20260506090506 76 69 1.7 5.2 0.00 0.00 0.00 89 1008.4
20260506090004 76 59 0.9 3.5 0.00 0.00 0.00 89 1008.4
20260506085508 76 90 0.9 2.6 0.00 0.00 0.00 89 1008.6
20260506085004 76 70 0.9 3.5 0.00 0.00 0.00 89 1008.6
20260506084508 76 92 0.9 3.5 0.00 0.00 0.00 89 1008.7
20260506084004 76 76 0.0 3.5 0.00 0.00 0.00 89 1008.7
20260506083504 76 67 0.9 3.5 0.00 0.00 0.00 89 1008.7
20260506082508 76 83 0.9 3.5 0.00 0.00 0.00 89 1008.8
20260506082009 76 71 0.9 3.5 0.00 0.00 0.00 89 1008.8
20260506081515 76 76 0.9 2.6 0.00 0.00 0.00 89 1008.9
20260506081007 76 67 0.9 2.6 0.00 0.00 0.00 89 1008.9
20260506080504 76 70 0.0 2.6 0.00 0.00 0.00 89 1009.1
20260506073507 76 88 0.9 3.5 0.00 0.00 0.00 89 1009.2
20260506073013 76 70 0.9 2.6 0.00 0.00 0.00 89 1009.4
20260506072509 76 66 0.0 2.6 0.00 0.00 0.00 89 1009.5
20260506072008 76 69 0.0 2.6 0.00 0.00 0.00 89 1009.4
20260506071005 76 84 0.9 2.6 0.00 0.00 0.00 88 1009.5
20260506070507 76 84 0.9 2.6 0.00 0.00 0.00 89 1009.5
20260506062009 76 69 0.0 2.6 0.00 0.00 0.00 89 1009.7
20260506061514 76 76 0.9 4.3 0.00 0.00 0.00 89 1009.8
20260506060505 76 88 1.7 3.5 0.00 0.00 0.00 88 1009.8
20260506051008 77 72 0.9 3.5 0.00 0.00 0.00 87 1009.8
20260506050507 77 73 0.0 3.5 0.00 0.00 0.00 87 1009.9
20260506045004 77 69 1.7 4.3 0.00 0.00 0.00 86 1009.7
20260506044516 77 65 0.9 4.3 0.00 0.00 0.00 86 1009.6
20260506044007 77 80 1.7 4.3 0.00 0.00 0.00 86 1009.4
20260506043510 77 66 1.7 4.3 0.00 0.00 0.00 86 1009.5
20260506043021 77 325 0.0 2.6 0.00 0.00 0.00 85 1009.7
20260506042508 77 80 0.9 2.6 0.00 0.00 0.00 85 1009.8
20260506042013 77 96 0.0 4.3 0.00 0.00 0.00 85 1009.8
20260506041519 78 75 0.9 4.3 0.00 0.00 0.00 84 1009.7
20260506041007 78 74 1.7 3.5 0.00 0.00 0.00 84 1009.6
20260506040505 78 76 0.9 4.3 0.00 0.00 0.00 84 1009.6
20260506040012 78 60 0.9 4.3 0.00 0.00 0.00 84 1009.5
20260506035504 78 74 0.9 4.3 0.00 0.00 0.00 84 1009.5
20260506035009 78 65 0.9 5.2 0.00 0.00 0.00 84 1009.3
20260506034518 78 68 1.7 5.2 0.00 0.00 0.00 84 1009.2
20260506034008 78 69 0.9 4.3 0.00 0.00 0.00 84 1009.2
20260506033514 78 76 0.9 3.5 0.00 0.00 0.00 84 1009.3
20260506033025 78 88 1.7 3.5 0.00 0.00 0.00 84 1009.3
20260506032506 78 55 0.9 3.5 0.00 0.00 0.00 84 1009.3
20260506032009 78 76 0.9 6.1 0.00 0.00 0.00 84 1009.2
20260506031532 78 69 0.9 6.1 0.00 0.00 0.00 83 1009.1
20260506031006 78 63 0.9 6.1 0.00 0.00 0.00 83 1009.0
20260506030503 78 69 1.7 6.1 0.00 0.00 0.00 83 1008.9
20260506024527 78 113 2.6 6.1 0.00 0.00 0.00 83 1008.8
20260506024008 78 59 0.9 6.1 0.00 0.00 0.00 82 1008.7
20260506023508 78 69 1.7 5.2 0.00 0.00 0.00 82 1008.6
20260506023020 78 88 0.9 5.2 0.00 0.00 0.00 82 1008.5
20260506022509 78 74 1.7 7.0 0.00 0.00 0.00 81 1008.4
20260506022009 79 82 2.6 7.0 0.00 0.00 0.00 81 1008.5
20260506021519 79 63 1.7 5.2 0.00 0.00 0.00 81 1008.3
20260506021006 79 67 1.7 3.5 0.00 0.00 0.00 81 1008.3
20260506020506 79 53 0.0 3.5 0.00 0.00 0.00 81 1008.2
20260506020016 79 56 0.9 3.5 0.00 0.00 0.00 80 1008.2
20260506015510 79 80 0.9 3.5 0.00 0.00 0.00 80 1008.1
20260506015007 79 68 0.9 3.5 0.00 0.00 0.00 80 1008.1
20260506014519 79 76 1.7 3.5 0.00 0.00 0.00 80 1008.1
20260506014008 79 65 0.0 5.2 0.00 0.00 0.00 79 1008.1
20260506013023 79 63 0.9 4.3 0.00 0.00 0.00 79 1008.0
20260506012508 79 87 0.9 4.3 0.00 0.00 0.00 79 1008.0
20260506012010 79 37 1.7 4.3 0.00 0.00 0.00 79 1007.8
20260506011515 79 72 1.7 4.3 0.00 0.00 0.00 78 1007.6
20260506011003 79 88 0.9 3.5 0.00 0.00 0.00 78 1007.6
20260506010511 80 65 0.9 3.5 0.00 0.00 0.00 77 1007.5
20260506010043 80 59 1.7 5.2 0.00 0.00 0.00 77 1007.3
20260506005509 80 92 1.7 5.2 0.00 0.00 0.00 77 1007.4
20260506005006 80 78 0.9 5.2 0.00 0.00 0.00 76 1007.3
20260506004522 80 60 0.9 4.3 0.00 0.00 0.00 76 1007.3
20260506004010 80 69 1.7 4.3 0.00 0.00 0.00 76 1007.2
20260506003502 80 74 0.9 4.3 0.00 0.00 0.00 76 1007.2
20260506003008 80 61 0.9 3.5 0.00 0.00 0.00 76 1007.2
20260506002504 80 88 0.9 4.3 0.00 0.00 0.00 77 1007.2
20260506002005 80 64 0.9 4.3 0.00 0.00 0.00 76 1007.1
20260506001513 80 65 0.9 4.3 0.00 0.00 0.00 76 1007.1
20260506001006 81 68 1.7 4.3 0.00 0.00 0.00 76 1007.1
20260506000508 81 67 1.7 6.1 0.00 0.00 0.00 76 1007.1
20260506000020 81 72 1.7 6.1 0.00 0.00 0.00 76 1007.2
20260505235508 81 72 1.7 7.8 0.00 0.00 0.00 75 1007.2
20260505235011 81 68 1.7 7.8 0.00 0.00 0.00 75 1007.2
20260505234522 81 94 3.5 7.0 0.00 0.00 0.00 75 1007.1
20260505234004 81 68 1.7 5.2 0.00 0.00 0.00 76 1007.0
20260505233504 81 76 1.7 4.3 0.00 0.00 0.00 76 1007.0
20260505233011 81 80 1.7 4.3 0.00 0.00 0.00 75 1007.1
20260505232507 81 86 1.7 4.3 0.00 0.00 0.00 76 1007.1
20260505232005 81 57 1.7 4.3 0.00 0.00 0.00 76 1007.1
20260505231518 82 55 1.7 4.3 0.00 0.00 0.00 75 1007.1
20260505231005 82 70 1.7 5.2 0.00 0.00 0.00 75 1007.1
20260505230506 82 56 1.7 6.1 0.00 0.00 0.00 75 1007.1
20260505230026 82 72 1.7 6.1 0.00 0.00 0.00 74 1007.2
20260505225510 82 74 1.7 5.2 0.00 0.00 0.00 74 1007.2
20260505225009 82 69 2.6 5.2 0.00 0.00 0.00 74 1007.2
20260505224522 82 32 1.7 7.0 0.00 0.00 0.00 74 1007.2
20260505224004 82 57 0.9 7.0 0.00 0.00 0.00 73 1007.2
20260505223507 82 73 1.7 6.1 0.00 0.00 0.00 73 1007.1
20260505223010 83 75 2.6 6.1 0.00 0.00 0.00 72 1007.3
20260505222508 83 70 0.9 6.1 0.00 0.00 0.00 72 1007.2
20260505222010 83 66 1.7 6.1 0.00 0.00 0.00 72 1007.3
20260505221520 83 67 2.6 5.2 0.00 0.00 0.00 72 1007.2
20260505215508 84 43 2.6 5.2 0.00 0.00 0.00 70 1007.3
20260505215011 84 89 1.7 8.7 0.00 0.00 0.00 71 1007.5
20260505214523 83 51 1.7 8.7 0.00 0.00 0.00 71 1007.4
20260505214008 84 78 1.7 3.5 0.00 0.00 0.00 72 1007.5
20260505212511 84 82 2.6 7.0 0.00 0.00 0.00 70 1007.7
20260505211522 84 80 1.7 6.1 0.00 0.00 0.00 72 1007.8
20260505210511 84 72 2.6 6.1 0.00 0.00 0.00 71 1007.9
20260505210025 84 275 1.7 5.2 0.00 0.00 0.00 71 1008.0
20260505204510 84 87 1.7 8.7 0.00 0.00 0.00 70 1008.2
20260505204010 84 93 2.6 8.7 0.00 0.00 0.00 70 1008.2
20260505203507 84 50 1.7 4.3 0.00 0.00 0.00 70 1008.3
20260505203027 85 84 0.9 4.3 0.00 0.00 0.00 70 1008.4
20260505202512 84 279 1.7 4.3 0.00 0.00 0.00 71 1008.3
20260505202008 84 103 2.6 4.3 0.00 0.00 0.00 71 1008.5
20260505201522 84 55 0.9 5.2 0.00 0.00 0.00 73 1008.6
20260505201009 83 63 0.9 5.2 0.00 0.00 0.00 74 1008.7
20260505200511 83 91 0.0 3.5 0.00 0.00 0.00 74 1008.9
20260505200025 83 56 0.9 5.2 0.00 0.00 0.00 74 1008.9
20260505195511 83 69 0.9 7.8 0.00 0.00 0.00 74 1009.0
20260505194512 83 63 1.7 7.8 0.00 0.00 0.00 73 1009.1
20260505194004 83 84 2.6 7.0 0.00 0.00 0.00 73 1009.1
20260505193509 82 69 2.6 6.1 0.00 0.00 0.00 74 1009.1
20260505193020 82 50 2.6 6.1 0.00 0.00 0.00 74 1009.1
20260505192509 82 281 0.9 3.5 0.00 0.00 0.00 73 1009.1
20260505192012 83 49 0.9 4.3 0.00 0.00 0.00 72 1009.1
20260505191523 83 62 1.7 4.3 0.00 0.00 0.00 73 1009.1
20260505191009 83 51 0.9 4.3 0.00 0.00 0.00 74 1009.2
20260505190512 82 32 0.9 5.2 0.00 0.00 0.00 74 1009.2
20260505190034 82 53 1.7 6.1 0.00 0.00 0.00 74 1009.1
20260505185513 82 69 0.9 6.1 0.00 0.00 0.00 74 1009.2
20260505185005 82 51 0.9 5.2 0.00 0.00 0.00 75 1009.2
20260505184514 81 271 0.9 5.2 0.00 0.00 0.00 76 1009.3
20260505184007 81 271 0.0 5.2 0.00 0.00 0.00 76 1009.4
20260505183508 82 79 0.9 3.5 0.00 0.00 0.00 76 1009.4
20260505183018 82 53 0.9 3.5 0.00 0.00 0.00 76 1009.4
20260505182507 81 65 0.9 4.3 0.00 0.00 0.00 76 1009.4
20260505182013 81 269 1.7 4.3 0.00 0.00 0.00 76 1009.4
20260505181527 81 63 1.7 4.3 0.00 0.00 0.00 76 1009.5
20260505181011 81 57 0.0 5.2 0.00 0.00 0.00 77 1009.6
20260505180511 81 59 1.7 5.2 0.00 0.00 0.00 76 1009.5
20260505180026 81 54 1.7 5.2 0.00 0.00 0.00 77 1009.5
20260505175510 80 44 0.9 3.5 0.00 0.00 0.00 78 1009.6
20260505175014 80 49 0.0 5.2 0.00 0.00 0.00 79 1009.7
20260505174517 80 67 0.9 5.2 0.00 0.00 0.00 78 1009.7
20260505174007 80 71 1.7 5.2 0.00 0.00 0.00 78 1009.8
20260505173507 80 24 0.9 3.5 0.00 0.00 0.00 79 1009.8
20260505173034 79 80 0.9 3.5 0.00 0.00 0.00 79 1009.9
20260505172511 79 22 0.9 2.6 0.00 0.00 0.00 80 1010.0
20260505172010 80 53 0.0 2.6 0.00 0.00 0.00 80 1010.0
20260505171538 79 58 0.0 3.5 0.00 0.00 0.00 80 1010.0
20260505171011 79 34 0.9 5.2 0.00 0.00 0.00 80 1010.0
20260505170510 79 38 1.7 5.2 0.00 0.00 0.00 81 1010.1
20260505170027 79 40 0.9 3.5 0.00 0.00 0.00 80 1010.0
20260505165511 79 59 1.7 4.3 0.00 0.00 0.00 80 1010.1
20260505165004 79 60 1.7 4.3 0.00 0.00 0.00 80 1010.1
20260505164519 79 63 1.7 4.3 0.00 0.00 0.00 80 1010.1
20260505164007 79 250 0.0 2.6 0.00 0.00 0.00 81 1010.1
20260505163508 79 246 0.9 4.3 0.00 0.00 0.00 81 1010.0
20260505163025 79 55 0.9 4.3 0.00 0.00 0.00 81 1010.0
20260505162509 79 36 0.0 3.5 0.00 0.00 0.00 82 1010.1
20260505162011 78 59 0.9 3.5 0.00 0.00 0.00 82 1010.0
20260505161526 78 44 0.9 3.5 0.00 0.00 0.00 82 1010.0
20260505161011 78 277 0.0 2.6 0.00 0.00 0.00 83 1010.0
20260505160515 78 65 0.9 5.2 0.00 0.00 0.00 82 1010.0
20260505152504 75 54 0.9 3.5 0.00 0.00 0.00 87 1009.8
20260505152004 75 49 0.9 3.5 0.00 0.00 0.00 86 1009.8
20260505151511 76 82 0.9 2.6 0.00 0.00 0.00 86 1009.8
20260505151004 76 67 0.0 5.2 0.00 0.00 0.00 85 1009.7
20260505150507 76 73 0.9 5.2 0.00 0.00 0.00 85 1009.7
20260505140508 76 56 1.7 5.2 0.00 0.00 0.00 85 1009.5